BLY85 EGGP-LFMT

Flight info

Callsign BLY85
Flight time N/A
Altitude 39000
Route NANTI L8 STAFA P18 TELBA L151 KIDLI UN859 SOPIL DCT BALAN DCT EVPOK DCT NARAK DCT GAI G39 AFRIC G393 BRUSC
Aircraft B38M/M-SDE1FGHILORVWXY/HB1

Departure

Time N/A
Airport Liverpool John Lennon Airport (EGGP)

Arrival

Time 2026-04-22 14:48
Airport Montpellier-Méditerranée Airport (LFMT)
Time Latitude Longitude Altitude Speed Heading
2026-04-22 14:22 44.76050 1.60370 38993 ft 476 kts 170°
2026-04-22 14:23 44.72809 1.61389 38989 ft 477 kts 170°
2026-04-22 14:23 44.66338 1.63421 38988 ft 477 kts 170°
2026-04-22 14:24 44.59857 1.65451 38982 ft 476 kts 170°
2026-04-22 14:24 44.53390 1.67472 38986 ft 476 kts 170°
2026-04-22 14:25 44.46918 1.69490 38995 ft 476 kts 170°
2026-04-22 14:25 44.40445 1.71504 38972 ft 476 kts 170°
2026-04-22 14:25 44.37248 1.72497 38825 ft 474 kts 170°
2026-04-22 14:26 44.34018 1.73498 38012 ft 476 kts 170°
2026-04-22 14:26 44.30797 1.74495 37426 ft 472 kts 171°
2026-04-22 14:26 44.27584 1.75239 36967 ft 464 kts 174°
2026-04-22 14:26 44.24415 1.75925 36529 ft 458 kts 174°
2026-04-22 14:27 44.21258 1.76628 36107 ft 463 kts 174°
2026-04-22 14:27 44.18040 1.77356 35678 ft 470 kts 174°
2026-04-22 14:27 44.14804 1.78090 35228 ft 472 kts 174°
2026-04-22 14:27 44.11547 1.78828 34780 ft 477 kts 174°
2026-04-22 14:28 44.08264 1.79572 34339 ft 479 kts 174°
2026-04-22 14:28 44.04964 1.80345 33862 ft 482 kts 171°
2026-04-22 14:28 44.01808 1.81786 33279 ft 487 kts 156°
2026-04-22 14:28 43.98916 1.84244 32622 ft 490 kts 142°
2026-04-22 14:29 43.96472 1.87546 31714 ft 493 kts 130°
2026-04-22 14:29 43.94521 1.91501 30496 ft 502 kts 116°
2026-04-22 14:29 43.93314 1.96042 29269 ft 500 kts 102°
2026-04-22 14:29 43.92477 2.00703 28056 ft 498 kts 103°
2026-04-22 14:30 43.91660 2.05358 26977 ft 495 kts 102°
2026-04-22 14:30 43.90875 2.09954 26249 ft 484 kts 102°
2026-04-22 14:30 43.90115 2.14480 25507 ft 482 kts 102°
2026-04-22 14:30 43.89356 2.19015 24652 ft 483 kts 102°
2026-04-22 14:31 43.88596 2.23556 23828 ft 483 kts 102°
2026-04-22 14:31 43.87835 2.28100 22900 ft 484 kts 103°
2026-04-22 14:31 43.87073 2.32636 22047 ft 482 kts 102°
2026-04-22 14:31 43.86312 2.37154 21239 ft 479 kts 102°
2026-04-22 14:32 43.85556 2.41628 20495 ft 475 kts 102°
2026-04-22 14:32 43.84804 2.46067 19750 ft 472 kts 103°
2026-04-22 14:32 43.84065 2.50421 19118 ft 467 kts 103°
2026-04-22 14:32 43.83316 2.54820 18291 ft 462 kts 103°
2026-04-22 14:33 43.82550 2.59128 17050 ft 463 kts 104°
2026-04-22 14:33 43.81760 2.63397 15864 ft 453 kts 104°
2026-04-22 14:33 43.80988 2.67590 14714 ft 446 kts 104°
2026-04-22 14:33 43.80228 2.71722 13627 ft 439 kts 104°
2026-04-22 14:34 43.79480 2.75785 12512 ft 431 kts 104°
2026-04-22 14:34 43.78745 2.79766 11472 ft 424 kts 104°
2026-04-22 14:34 43.78012 2.83723 10790 ft 423 kts 103°
2026-04-22 14:34 43.77303 2.87646 10320 ft 416 kts 103°
2026-04-22 14:35 43.76644 2.91470 10282 ft 399 kts 103°
2026-04-22 14:35 43.76009 2.95118 10284 ft 381 kts 102°
2026-04-22 14:35 43.75401 2.98602 10280 ft 365 kts 103°
2026-04-22 14:35 43.74817 3.01941 10252 ft 349 kts 102°
2026-04-22 14:36 43.74261 3.05125 10260 ft 333 kts 102°
2026-04-22 14:36 43.73727 3.08167 10281 ft 319 kts 102°
2026-04-22 14:36 43.73212 3.11101 10273 ft 311 kts 101°
2026-04-22 14:36 43.72704 3.13992 10280 ft 310 kts 102°
2026-04-22 14:37 43.72203 3.16841 10271 ft 309 kts 102°
2026-04-22 14:37 43.71694 3.19726 10276 ft 309 kts 101°
2026-04-22 14:37 43.71185 3.22603 10281 ft 308 kts 102°
2026-04-22 14:37 43.70675 3.25485 10287 ft 309 kts 102°
2026-04-22 14:38 43.70163 3.28378 10288 ft 309 kts 102°
2026-04-22 14:38 43.69651 3.31264 9969 ft 311 kts 102°
2026-04-22 14:38 43.69133 3.34175 9350 ft 312 kts 102°
2026-04-22 14:38 43.68617 3.37076 8744 ft 310 kts 102°
2026-04-22 14:39 43.68103 3.39957 8207 ft 307 kts 102°
2026-04-22 14:39 43.67603 3.42782 7804 ft 298 kts 103°
2026-04-22 14:39 43.67117 3.45539 7364 ft 293 kts 102°
2026-04-22 14:40 43.66329 3.50058 6527 ft 287 kts 100°
2026-04-22 14:40 43.66632 3.53579 5975 ft 273 kts 63°
2026-04-22 14:40 43.67726 3.55659 5431 ft 271 kts 48°
2026-04-22 14:40 43.68991 3.57576 4899 ft 270 kts 49°
2026-04-22 14:41 43.70246 3.59481 4418 ft 265 kts 50°
2026-04-22 14:41 43.71490 3.61357 3898 ft 265 kts 51°
2026-04-22 14:41 43.72365 3.63480 3707 ft 247 kts 81°
2026-04-22 14:41 43.72331 3.65739 3691 ft 227 kts 108°
2026-04-22 14:42 43.71713 3.67658 3668 ft 211 kts 119°
2026-04-22 14:42 43.71078 3.69357 3767 ft 188 kts 116°
2026-04-22 14:42 43.70573 3.70942 3720 ft 172 kts 117°
2026-04-22 14:42 43.70041 3.72344 3663 ft 157 kts 122°
2026-04-22 14:43 43.69480 3.73635 3603 ft 157 kts 124°
2026-04-22 14:43 43.68886 3.74912 3467 ft 159 kts 125°
2026-04-22 14:43 43.68276 3.76181 3296 ft 157 kts 126°
2026-04-22 14:43 43.67668 3.77424 3129 ft 152 kts 126°
2026-04-22 14:44 43.67110 3.78553 2958 ft 136 kts 126°
2026-04-22 14:44 43.66597 3.79587 2788 ft 130 kts 127°
2026-04-22 14:44 43.66094 3.80600 2618 ft 127 kts 126°
2026-04-22 14:44 43.65588 3.81618 2434 ft 130 kts 126°
2026-04-22 14:45 43.65077 3.82643 2263 ft 129 kts 126°
2026-04-22 14:45 43.64573 3.83657 2100 ft 128 kts 127°
2026-04-22 14:45 43.64063 3.84675 1916 ft 131 kts 127°
2026-04-22 14:45 43.63543 3.85721 1745 ft 133 kts 127°
2026-04-22 14:46 43.63015 3.86780 1559 ft 136 kts 127°
2026-04-22 14:46 43.62476 3.87860 1381 ft 137 kts 127°
2026-04-22 14:46 43.61944 3.88924 1196 ft 133 kts 127°
2026-04-22 14:46 43.61427 3.89954 997 ft 133 kts 124°
2026-04-22 14:47 43.60894 3.91018 875 ft 136 kts 125°
2026-04-22 14:47 43.60356 3.92099 696 ft 138 kts 123°
2026-04-22 14:47 43.59994 3.92818 578 ft 137 kts 122°
2026-04-22 14:47 43.59437 3.93920 380 ft 141 kts 120°
2026-04-22 14:48 43.58879 3.95029 157 ft 141 kts 120°
2026-04-22 14:48 43.58334 3.96118 25 ft 129 kts 122°
2026-04-22 14:48 43.57970 3.96845 19 ft 58 kts 124°
2026-04-22 14:48 43.57855 3.97048 19 ft 15 kts 148°
2026-04-22 14:49 43.57789 3.97030 22 ft 11 kts 211°
2026-04-22 14:49 43.57726 3.96957 20 ft 13 kts 252°
2026-04-22 14:49 43.57769 3.96843 20 ft 15 kts 309°
2026-04-22 14:49 43.57836 3.96714 20 ft 18 kts 304°
2026-04-22 14:50 43.57897 3.96591 20 ft 9 kts 304°
2026-04-22 14:50 43.57939 3.96507 20 ft 12 kts 304°
2026-04-22 14:50 43.57991 3.96402 21 ft 15 kts 304°
2026-04-22 14:50 43.58042 3.96278 20 ft 11 kts 261°
2026-04-22 14:51 43.57981 3.96203 20 ft 12 kts 216°
2026-04-22 14:51 43.57935 3.96160 21 ft 5 kts 212°
2026-04-22 14:51 43.57900 3.96126 20 ft 6 kts 236°
2026-04-22 14:51 43.57908 3.96076 20 ft 6 kts 295°
2026-04-22 14:52 43.57913 3.96059 21 ft 0 kts 294°
2026-04-22 14:52 43.57914 3.96058 21 ft 0 kts 294°